map of BQN home
Great Circle Mapper logo
BQN - Airport
Location
City:  Aguadilla, Puerto Rico, United States
Near (Alt.):Borinquen
Name:Rafael Hernández Airport
Old (Alt.):USCG Air Station Borinquen
ICAO / IATA:TJBQ / BQN
FAA:BQN

Details
Type:Airport (Part 139 Class I)
Use:Public/Civil
Latitude:18°29'41"N (18.494861)
Longitude:67°07'46"W (-67.129443)
Datum:WGS 1984
Elevation:237 ft (72 m)
Variation:12.6°W (WMM2015 magnetic declination)
Runways:1
Longest:11702 × 200 ft (3567 × 61 m), paved

Time
Time Zone:UTC-4
Local Time:

Weather
METAR:TJBQ 181350Z 07014G23KT 10SM BKN033 OVC038 24/19 A3008 RMK RWY08 ATIS T
TAF:TJBQ 181133Z 1812/1912 02003KT 6SM RA VCSH BKN030
FM181400 07014KT P6SM VCSH SCT025
FM182300 09005KT P6SM FEW025

Related Locations
Nearby:
Farthest:BWB: 12206 mi / 19644 km
Barrow Island, WA, AU

Find:

   beyond  
but within

Other Information
Maps:
NOTAMs:
Links:
Sources:

  
flag of United States
flag of Puerto Rico
  

Airport Diagram

Airport diagram for BQN

Airport diagram PDF

Sectional Chart

Flight Planning
at skyvector.com

Satellite Image

Google Maps Satellite View

 

Copyright © 2004-2014 Karl L. Swartz. All rights reserved.
The Great Circle Mapper name and logo are trademarks of the Great Circle Mapper.
All other trademarks mentioned herein belong to their respective owners.
Please see credits for attibutions and further copyright information.

  Follow gcmap on Facebook Follow gcmap on Twitter

hCard Microformat

Geo Microformat